Regional Weather Roundup
Issued by NWS

Home | Current Version | Previous Version | Graphics & Text | Print | Product List | Glossary Off
Versions: 1 2 3 4 5 6 7 8 9 10 11 12 13 14 15 16 17 18 19 20 21 22 23 24 25 26 27 28 29 30 31 32 33 34 35 36 37 38 39 40 41 42 43 44 45 46 47 48 49 50

000
ASUS43 KMKX 052020
RWRWI

WISCONSIN REGIONAL WEATHER ROUNDUP
NATIONAL WEATHER SERVICE MILWAUKEE/SULLIVAN WI
200 PM CST THU MAR 05 2015

NOTE: "FAIR" INDICATES FEW OR NO CLOUDS BELOW 12,000 FEET WITH NO
SIGNIFICANT WEATHER AND/OR OBSTRUCTIONS TO VISIBILITY.

WIZ001-002-006>008-014>016-023>028-052100-
NORTHWEST WISCONSIN

CITY           SKY/WX    TMP DP  RH WIND       PRES   REMARKS
SUPERIOR ARPT  SUNNY     14  -7  39 W12       30.39F WCI   0
ASHLAND        SUNNY     12 -10  36 SW8G17    30.37F WCI   0
HAYWARD        SUNNY      8 -11  41 SW12      30.37  WCI  -7
SIREN          SUNNY     11  -8  43 SW10G18   30.41F WCI  -3
CUMBERLAND     SUNNY      7  -8  51 SW10      30.39F WCI  -8
RICE LAKE      SUNNY      8 -10  45 W8        30.43F WCI  -5
CHETEK         SUNNY      8  -9  45 SW5       30.42F WCI   0
LADYSMITH      SUNNY     11 -10  37 W8        30.39F WCI  -1
EAU CLAIRE     SUNNY      7  -8  50 W9        30.45  WCI  -7
MENOMONIE      SUNNY     11  -8  40 W6        30.45F WCI   2
NEW RICHMOND   SUNNY     11  -6  46 SW7       30.43F WCI   0
OSCEOLA        SUNNY     13  -5  45 SW9       30.47F WCI   0
$$

WIZ003>005-009-010-017-018-052100-
NORTH CENTRAL WISCONSIN

CITY           SKY/WX    TMP DP  RH WIND       PRES   REMARKS
MANITOWISH WTR SUNNY     10 -10  40 W8G16     30.29F WCI  -3
ARBOR VITAE    SUNNY     11  -9  39 W5        30.29F WCI   3
WOODRUFF       SUNNY     11  -9  39 W5        30.29F WCI   3
RHINELANDER    SUNNY     11  -7  44 W15       30.30  WCI  -5
EAGLE RIVER    SUNNY     10 -12  36 W13       30.28F WCI  -5
LAND O LAKES   SUNNY     13 -11  33 SW6       30.28F WCI   4
PHILLIPS       SUNNY      8  -9  44 SW10      30.33F WCI  -6
TOMAHAWK       SUNNY     11 -10  38 W8        30.33F WCI  -1
MEDFORD        SUNNY      6  -9  51 SW9       30.36F WCI  -8
MERRILL        SUNNY     11  -8  43 SW12      30.36F WCI  -4
$$

WIZ029-030-035-036-043>047-052100-
CENTRAL WISCONSIN

CITY           SKY/WX    TMP DP  RH WIND       PRES   REMARKS
WAUSAU         SUNNY      6  -8  52 W14       30.38  WCI -11
MOSINEE        SUNNY      7  -8  51 W12       30.40F WCI  -9
MARSHFIELD     SUNNY      8  -9  45 W9        30.39  WCI  -5
STEVENS POINT  SUNNY      7 -10  45 W8        30.41F WCI  -5
WAUPACA        SUNNY     17  -6  36 W12       30.43F WCI   4
WAUTOMA        SUNNY     14  -6  40 NW10      30.44  WCI   1
WISC RAPIDS    SUNNY     12  -7  42 SW8G16    30.42  WCI   0
CAMP DOUGLAS   SUNNY     14  -4  44 W10       30.44  WCI   1
$$

WIZ011>013-019>022-031-037>040-048>050-052100-
NORTHEAST WISCONSIN

CITY           SKY/WX    TMP DP  RH WIND       PRES   REMARKS
ANTIGO         SUNNY      9  -7  48 W8        30.32F WCI  -4
SHAWANO        SUNNY     16  -8  35 W10G17    30.40F WCI   3
OCONTO         SUNNY     14  -5  41 W12       30.40F WCI   1
STURGEON BAY   SUNNY     10  -4  52 W13       30.42S WCI  -5
GREEN BAY      SUNNY     13  -5  44 W8        30.42F WCI   2
MANITOWOC      SUNNY     15  -2  46 W14       30.44  WCI   0
APPLETON       SUNNY     12  -8  40 W10G17    30.42S WCI  -1
CLINTONVILLE   SUNNY     14  -8  37 W8        30.41F WCI   3
OSHKOSH        SUNNY     14  -4  44 W10       30.43  WCI   1
$$

WIZ032>034-041-042-053>061-052100-
SOUTHWEST WISCONSIN

CITY           SKY/WX    TMP DP  RH WIND       PRES   REMARKS
LA CROSSE      SUNNY     14  -3  47 NW8       30.49  WCI   3
SPARTA         SUNNY     13  -6  42 SW5       30.47F WCI   5
VIROQUA        SUNNY     11  -5  47 W6        30.42F WCI   2
BOSCOBEL       SUNNY     14  -6  40 W6        30.50  WCI   5
PRAIRIE DU CHI SUNNY     12  -7  42 W10       30.51F WCI  -2
PLATTEVILLE    SUNNY     10  -5  50 W8        30.47F WCI  -1
$$

WIZ056-057-062-063-064-067-068-052100-
SOUTH CENTRAL WISCONSIN

CITY           SKY/WX    TMP DP  RH WIND       PRES   REMARKS
REEDSBURG      SUNNY     13  -4  46 W8        30.45F WCI   1
BARABOO/DELLS  SUNNY     13  -7  41 CALM      30.44S
LONE ROCK      SUNNY     13  -6  42 SW6       30.48  WCI   4
MINERAL POINT  SUNNY     12  -6  44 W8        30.45S WCI   1
MADISON        SUNNY     14  -5  42 VRB3      30.46
MIDDLETON      SUNNY     16  -7  35 W7        30.46S WCI   7
WATERTOWN      SUNNY     13  -4  46 W8        30.45F WCI   2
MONROE         SUNNY     14  -4  44 W9        30.45S WCI   2
JANESVILLE     SUNNY     14  -6  41 W12       30.47F WCI   0
$$

WIZ051-052-058>065-066-070>072-052100-
SOUTHEAST WISCONSIN

CITY           SKY/WX    TMP DP  RH WIND       PRES   REMARKS
MILWAUKEE      FAIR      15  -6  39 NW10      30.46F WCI   2
WAUKESHA       SUNNY     10  -8  44 W12       30.46  WCI  -4
MILWAUKEE/TIMM SUNNY     14  -9  34 W10       30.46F WCI   1
RACINE         SUNNY     14  -6  40 W10       30.48  WCI   1
BURLINGTON     SUNNY     12  -6  43 W7        30.47S WCI   2
KENOSHA        SUNNY     13  -4  46 NW10      30.46F WCI   0
FOND DU LAC    SUNNY     13  -5  44 NW7       30.44S WCI   3
SHEBOYGAN      SUNNY     12  -3  51 NW12      30.44  WCI  -2
WEST BEND      SUNNY     14  -6  41 W10       30.43F WCI   1
JUNEAU         SUNNY     12  -5  45 W9        30.45S WCI   0
$$

LSZ147-162-052100-
LAKE SUPERIOR

STATION/POSITION TIME  TEMP    WIND        PRES    WAVE
                       AIR SEA DIR/SP/G            HT/PER
                 (UTC) (F)     (DEG/KT/KT) (MB)    (FT/S)
DEVILS ISLAND    2000    8     240/ 20/ 24 1029.8F
PORT WING        1940   11     260/  8/ 14 1029.1F
SAXON HARBOR     1900   11     210/  7/ 12 1029.5F
$$

LMZ867-665-643>646-052100-
LAKE MICHIGAN

STATION/POSITION TIME  TEMP    WIND        PRES    WAVE
                       AIR SEA DIR/SP/G            HT/PER
                 (UTC) (F)     (DEG/KT/KT) (MB)    (FT/S)
NORTHPORT PIER   1917   12     240/  4/ 13 1029.5F
SISTER BAY       1928   25     260/  9/ 10   N/A
KEWAUNEE LAKESHO 1900   11     250/  6/ 12 1029.6F
SHEBOYGAN LAKESH 2000   11     260/ 11/ 14 1032.8F
PORT WASHINGTON  1900   13     320/  6/  9 1032.2F
MILWAUKEE LAKESH 2000   13     280/  9/ 14   N/A
KENOSHA   LAKESH 2000   12     280/  9/ 14 1031.8S
$$

TC  - TEMPERATURE IN CELSIUS
VSB - VISIBILITY IN STATUTE MILES
WCI - WIND CHILL INDEX
HX  - HEAT INDEX




USA.gov is the U.S. government's official web portal to all federal, state and local government web resources and services.